TIANWANG 1B (TW-1B)
1 40927U 15051C   19150.41355505  .00009325  00000-0  14657-3 0  9993
2 40927  97.1400 196.0198 0010329  95.6989 321.4045 15.53783863207029
TIANWANG 1A (TW-1A)
1 40928U 15051D   19150.32877522  .00002412  00000-0  61048-4 0  9999
2 40928  97.1472 182.0623 0012345 136.9173 284.9017 15.40655115206194
LAPAN A2
1 40931U 15052B   19148.74838342  .00000586  00000-0 -81216-5 0  9995
2 40931   5.9975 206.1759 0018637 224.2731 135.6745 14.76604099198162
LQSAT
1 40958U 15057A   19149.79732695 -.00000025 +00000-0 +38636-5 0  9995
2 40958 097.8984 219.5277 0016993 308.0265 051.9373 14.73078769195889
CHUBUSAT 2
1 41338U 16012B   19150.39562538  .00000283  00000-0  15267-4 0  9994
2 41338  31.0031 267.3991 0013945 272.3707  87.5332 15.00145631180010
CHUBUSAT 3
1 41339U 16012C   19150.36737752  .00000249  00000-0  12590-4 0  9992
2 41339  31.0102 265.6967 0013681 280.0246  79.8857 15.00321659180006
OUFTI-1
1 41458U 16025C   19149.91942593 +.00001703 +00000-0 +89776-4 0  9994
2 41458 098.1010 235.7581 0167883 063.8685 297.9703 15.05764191169599
E-STAR-2
1 41459U 16025D   19150.19706187  .00000706  00000-0  40087-4 0  9998
2 41459  98.0995 235.7235 0169047  64.1083 297.7515 15.05404242169617
AAUSAT 4
1 41460U 16025E   19150.19690806  .00001299  00000-0  68719-4 0  9990
2 41460  98.0939 236.9136 0159000  57.0007 304.6472 15.07268184169733
NUSAT 1
1 41557U 16033B   19150.38751579  .00001155  00000-0  46072-4 0  9991
2 41557  97.4175 238.0001 0014078  13.4178 346.7432 15.27165354167142
BEESAT 4
1 41619U 16040W   19150.13417091  .00001157  00000-0  51992-4 0  9998
2 41619  97.3687 212.7210 0013168  92.7140 267.5604 15.23071539150888
PRATHAM
1 41783U 16059A   19150.17563320  .00000038  00000-0  16520-4 0  9996
2 41783  98.0687 210.1868 0034981  85.8393 274.6805 14.62992546142692
ALSAT 1N
1 41789U 16059G   19150.18092694  .00000033  00000-0  15303-4 0  9997
2 41789  98.0708 212.1425 0029617  75.3588 285.0896 14.64240482142797
NAYIF 1
1 42017U 17008BX  19150.15027631  .00001164  00000-0  48832-4 0  9992
2 42017  97.4040 217.4447 0004910 226.5402 133.5428 15.25467889126947
MAX VALIER SAT
1 42778U 17036P   19150.39668543  .00000881  00000-0  41582-4 0  9996
2 42778  97.3557 208.4867 0010710 295.6936  64.3194 15.21977904107303
